RH
89 90 94 74 83 80 83 77 82 80 86 71 68 73 87 81 75 74 80 70 78 88 87 71 59 64 68 72 79 80 88 96 95 84 82 84 88 78 76 72 78 83 88 94 82 88 90 48 59 71 64 65 64 65
89 92 94 80 83 85 76 94 77 82 84 74 75 81 90 83 80 80 82 90 92 89 84 78 78 75 71 59 76 77 96 100 100 99 93 94 86 83 79 80 67 72 70 79 78 74 50 47 63 56 66 68 59 61
92 88 92 88 84 89 81 94 71 79 79 77 79 81 88 78 82 83 86 95 87 94 76 76 60 57 60 66 69 82 84 91 100 100 100 98 94 80 83 86 68 60 63 67 64 53 57 52 52 62 64 62 58 59
90 91 93 88 94 80 84 76 70 74 76 81 83 81 82 82 91 77 80 94 84 97 93 78 62 64 64 65 68 65 70 75 94 87 82 97 99 89 89 82 80 67 65 66 70 62 59 54 58 54 66 62 63 64
93 92 93 91 90 83 81 66 70 74 78 82 85 77 83 88 81 69 73 90 89 87 94 93 71 63 63 64 66 72 71 76 85 84 92 87 90 95 87 91 95 72 66 73 72 56 55 53 48 54 72 71 71 70
92 92 95 92 88 84 76 64 70 76 81 91 86 78 84 90 80 75 89 78 80 81 96 98 72 70 66 64 75 75 74 83 92 90 91 87 82 93 93 88 75 64 59 61 64 53 60 58 69 69 74 75 75 72
93 98 91 92 86 84 71 66 70 78 86 93 86 83 92 91 78 75 85 88 83 90 97 95 94 69 80 77 81 83 81 91 89 92 96 93 91 90 88 89 59 55 62 68 68 71 73 73 72 71 75 75 70 73
96 95 95 87 84 80 71 68 74 84 92 93 87 83 87 84 89 88 89 92 89 89 81 94 95 84 78 92 88 85 94 94 92 90 90 97 92 92 95 68 59 54 52 69 77 74 75 76 77 76 76 73 75 79
93 95 90 88 78 82 73 73 83 88 95 89 79 77 81 81 85 89 92 97 92 91 91 89 96 97 91 98 97 91 90 97 86 95 95 92 91 89 76 67 74 77 74 71 74 76 76 74 78 76 76 78 79 83
94 94 92 86 84 80 78 82 88 94 93 82 76 76 97 88 81 84 99 97 97 97 84 96 90 95 93 93 100 91 94 92 97 86 89 96 91 77 82 87 87 88 81 80 83 84 80 86 83 80 83 88 88 90
92 85 86 92 86 82 82 87 94 98 85 70 84 93 95 81 78 93 94 92 96 90 90 85 93 94 89 99 99 97 98 99 99 99 96 98 90 88 87 88 87 83 78 79 82 87 87 78 85 86 88 88 90 86
93 91 90 93 89 85 86 95 91 86 72 63 71 77 73 78 94 83 98 94 85 96 95 98 97 97 93 97 100 95 99 100 93 100 100 97 82 86 85 79 77 90 88 87 85 87 92 94 95 90 92 92 91 95
93 90 91 93 87 90 92 93 96 77 73 72 70 85 89 89 86 87 94 99 92 96 99 97 96 92 92 97 99 100 100 97 95 100 94 94 87 87 85 79 76 82 90 98 98 98 94 92 95 97 90 77 70 74
100 98 93 87 89 93 89 100 90 76 67 89 76 75 79 98 95 90 92 90 88 95 95 96 96 97 89 100 100 100 92 100 99 100 94 95 94 92 86 79 79 88 81 83 96 98 95 96 94 89 90 84 75 74
96 91 86 86 95 96 94 94 84 73 67 88 79 65 96 85 96 96 96 95 95 90 97 95 96 96 94 97 99 99 99 98 94 92 98 100 94 90 85 82 84 94 96 100 98 99 97 78 74 75 79 77 82 81
88 90 98 96 97 94 93 92 84 74 83 92 96 78 91 98 97 100 100 99 96 75 78 77 97 98 87 97 98 99 98 95 95 100 100 100 95 89 86 84 79 90 97 95 98 100 99 91 92 86 69 62 78 87
89 99 94 98 100 98 95 85 82 99 93 100 100 90 94 97 88 94 91 89 89 93 97 84 88 85 96 98 97 97 98 99 100 100 100 96 94 91 83 84 77 83 97 99 97 100 99 99 92 75 49 49 66 81
80 87 90 100 99 100 98 92 94 97 98 98 100 97 90 81 85 85 91 95 94 94 94 95 91 92 96 100 97 95 99 100 98 99 97 88 86 85 79 84 81 71 62 64 73 99 99 92 80 62 51 49 59 65
72 98 100 99 96 87 99 100 95 98 97 98 99 98 95 88 86 84 89 94 90 90 95 99 91 88 89 93 94 97 95 100 89 84 85 77 70 77 80 72 75 86 83 89 94 97 82 94 64 56 49 50 62 64
84 100 100 98 87 98 97 99 97 96 99 95 98 100 96 95 94 96 97 97 92 95 98 93 89 90 90 87 92 96 98 92 91 92 82 80 69 81 83 80 74 69 74 76 76 74 77 75 64 52 49 50 58 63
99 100 100 96 98 97 94 99 100 99 97 95 98 97 97 97 100 99 96 95 98 97 97 89 86 79 83 82 82 83 86 87 92 92 84 90 80 82 84 84 85 85 81 74 72 73 82 93 91 68 48 47 51 58
100 100 98 99 98 98 95 98 95 96 93 96 96 96 100 100 97 93 99 97 96 93 91 92 84 81 89 87 78 76 75 74 76 80 80 76 86 91 85 74 88 91 91 90 87 91 88 81 73 66 54 46 46 47
98 98 99 99 98 97 97 97 95 97 92 93 98 95 96 100 99 93 97 93 93 90 84 86 86 78 82 75 78 75 71 74 78 68 63 65 68 71 79 78 81 92 94 86 80 83 84 78 82 75 53 49 48 46
98 99 99 98 97 97 94 98 95 95 97 98 99 94 94 100 96 98 100 96 89 96 95 90 93 96 93 82 91 79 51 54 62 65 62 71 89 64 56 61 64 68 72 73 80 82 81 80 77 72 62 56 54 54
98 97 98 96 96 94 96 97 98 98 98 100 100 96 96 97 100 100 100 88 90 94 91 95 93 88 84 89 87 57 46 48 76 84 34 39 44 56 49 43 41 39 44 66 77 79 77 79 80 74 64 63 62 58
98 93 98 95 95 89 95 99 98 97 96 100 99 98 100 100 100 87 88 88 92 93 94 91 88 92 93 82 71 75 35 33 47 65 37 33 37 47 77 85 81 49 33 40 56 68 72 74 78 75 73 71 74 68
96 96 96 81 88 88 93 86 84 94 100 97 98 100 98 96 90 78 87 90 89 64 56 60 77 81 73 67 64 36 25 26 29 32 30 34 39 43 47 59 71 40 40 44 48 56 62 66 69 69 65 59 54 50
95 93 94 97 96 96 92 96 96 96 91 88 86 100 89 84 73 78 80 47 48 47 46 44 56 64 65 51 38 29 30 34 40 46 47 45 39 34 33 35 34 32 43 49 58 66 70 70 69 69 69 65 59 53
96 94 89 98 98 98 91 89 90 90 79 89 88 88 85 83 85 86 42 37 38 40 40 34 27 34 46 50 37 36 45 48 62 72 66 64 87 43 31 36 38 42 48 51 53 58 71 80 82 82 77 73 69 64
96 94 94 98 96 96 92 92 93 95 93 86 88 92 92 90 53 42 43 42 52 56 45 41 38 40 43 46 52 48 46 50 54 63 68 67 62 51 48 50 55 56 59 63 64 64 63 73 83 96 98 92 81 69
97 94 92 97 95 93 96 93 93 91 95 97 99 95 88 95 68 39 41 53 58 55 56 60 60 59 64 67 72 82 80 59 59 61 66 71 72 72 69 68 72 76 77 75 69 66 72 76 86 93 98 94 88 83
98 96 96 91 91 95 95 96 100 100 100 100 95 100 96 94 89 84 63 60 59 66 79 81 82 78 77 81 80 81 83 86 84 79 79 79 79 79 81 81 84 84 83 82 80 75 75 80 82 90 96 96 93 85
97 95 95 94 94 91 93 90 93 96 98 100 99 99 99 95 80 83 67 66 61 60 61 63 67 69 68 67 66 68 71 72 71 71 91 99 98 94 94 93 92 93 92 88 83 82 88 89 88 89 94 95 92 88
Wind_Speed
43 40 36 31 29 25 21 18 17 12 8 7 6 5 5 7 8 5 4 7 3 0 4 2 2 2 4 1 2 3 4 1 1 2 2 3 3 4 1 3 5 6 5 3 4 3 7 2 1 4 5 3 3 3
43 41 37 34 30 27 22 20 17 12 9 6 5 4 5 5 6 6 3 5 3 1 3 11 14 12 11 5 2 3 1 3 3 2 1 2 2 0 3 3 1 3 6 4 7 5 4 4 5 4 3 3 2 2
46 42 39 34 30 27 23 21 19 14 10 7 4 2 3 5 7 7 2 4 3 1 3 3 1 5 5 5 12 3 1 2 2 2 3 2 3 2 3 5 3 3 4 3 2 4 7 6 5 5 3 4 2 1
47 44 38 34 31 26 23 21 20 15 12 8 4 3 2 5 6 8 3 2 2 3 2 4 5 6 5 6 8 15 3 4 4 1 2 2 2 2 2 2 2 4 4 4 4 6 6 8 7 7 5 3 3 2
49 44 38 36 32 27 23 22 21 16 13 9 4 3 2 3 7 7 11 8 5 3 1 4 12 4 6 7 8 7 7 1 1 0 1 2 3 3 2 1 3 3 4 4 5 5 3 7 4 2 5 6 6 5
49 43 40 37 33 28 24 23 21 17 12 9 5 3 1 3 5 3 3 7 7 5 2 3 5 3 6 7 7 7 4 2 1 1 2 2 3 2 3 3 4 4 3 5 5 3 6 5 4 2 4 5 5 6
47 44 41 39 33 29 24 23 21 16 12 9 5 2 1 2 4 4 3 2 4 3 2 4 4 3 2 2 2 1 3 1 2 1 2 2 2 2 2 4 7 9 6 5 4 1 3 3 3 1 5 7 7 5
47 44 42 38 34 29 25 24 20 16 13 9 5 3 1 3 7 5 6 3 2 4 2 2 4 4 2 1 1 2 2 1 1 2 1 2 2 1 4 8 7 11 14 7 5 2 2 1 5 3 3 4 4 3
46 44 41 38 35 31 28 24 20 16 13 9 5 8 5 2 2 3 2 2 4 3 2 1 2 3 1 1 1 1 1 1 1 2 3 3 2 5 7 5 9 7 5 5 4 2 4 3 4 3 3 3 3 1
46 42 40 38 35 31 28 24 19 16 12 9 8 3 1 2 3 4 2 1 1 1 1 1 0 2 1 2 2 2 3 2 2 4 3 3 3 6 6 4 4 5 8 5 2 2 3 2 4 1 2 2 2 1
44 41 40 37 33 31 27 23 20 17 10 4 3 2 4 3 2 1 1 2 1 1 2 2 3 2 1 3 2 3 2 2 2 2 3 3 3 3 2 3 3 5 5 5 3 3 4 3 3 3 2 2 2 3
42 41 38 36 33 31 28 24 21 13 6 7 10 7 3 1 1 2 1 1 1 2 2 1 2 2 3 3 3 3 2 2 4 4 3 2 1 3 4 4 4 3 4 5 7 5 5 6 5 3 4 5 5 4
42 39 36 34 32 30 27 22 20 10 15 7 4 4 3 2 3 4 3 3 2 2 1 2 2 2 2 2 3 2 3 3 0 2 3 2 2 4 5 4 2 4 4 4 5 7 8 9 8 6 6 6 6 6
42 39 36 33 31 29 24 22 17 14 3 3 3 1 3 1 4 4 4 3 2 2 1 1 2 2 2 2 2 3 3 2 2 2 4 2 4 6 4 4 0 2 3 4 3 4 4 5 4 4 4 5 6 6
39 36 33 30 30 28 23 20 16 6 3 2 3 3 4 3 1 2 3 2 2 2 1 0 2 2 2 3 2 3 3 3 3 3 1 2 5 4 4 2 1 2 2 2 1 1 2 3 3 3 4 5 4 4
38 33 25 31 30 27 24 20 9 3 3 3 2 2 1 2 3 1 3 3 2 3 1 1 1 2 3 3 3 4 2 3 1 1 2 3 5 5 4 3 3 4 4 3 2 0 1 4 5 6 4 4 4 4
29 8 30 31 31 29 25 9 4 2 3 2 2 1 2 0 4 3 3 3 5 3 2 2 3 6 3 3 3 3 3 1 1 2 2 3 4 6 4 4 4 5 6 6 4 2 1 2 7 7 5 4 4 3
16 25 32 37 38 24 6 3 3 2 3 2 3 3 2 2 2 2 2 3 3 3 2 5 1 4 4 4 3 3 1 2 3 3 2 4 4 7 6 6 9 10 9 8 7 7 6 6 7 7 6 6 6 5
28 36 37 37 27 8 4 2 2 3 4 2 1 1 2 2 2 1 2 4 2 1 3 2 4 4 5 4 4 3 2 2 2 3 3 7 12 10 8 8 9 11 12 11 11 11 8 9 11 9 8 7 7 6
27 31 35 30 21 4 3 0 2 3 3 2 1 1 2 2 1 1 2 2 2 2 3 5 7 4 4 4 4 3 3 3 2 4 5 3 6 6 8 8 10 10 9 10 13 10 10 11 12 12 11 10 8 8
24 24 28 18 4 4 3 3 1 2 1 2 1 1 1 1 2 1 2 2 2 3 4 6 7 7 7 4 7 7 6 4 4 4 4 4 7 8 12 12 10 9 8 8 7 10 12 13 17 13 11 12 11 9
10 20 5 4 4 1 3 1 2 2 2 1 1 1 1 1 3 3 2 4 4 5 5 4 5 5 4 6 11 18 17 12 11 10 12 12 4 2 5 9 5 6 11 13 14 13 15 18 15 13 14 13 11 10
15 8 4 3 3 1 1 3 3 0 3 2 1 1 2 2 3 2 3 3 4 5 8 7 6 7 6 9 7 9 11 13 7 10 10 10 11 12 13 15 12 12 9 16 16 17 18 16 14 14 14 13 12 12
10 5 4 4 3 3 3 2 2 2 2 1 2 3 3 3 0 1 4 3 4 2 4 5 8 1 1 3 3 5 15 16 13 11 11 10 7 10 6 10 11 13 16 20 18 16 15 15 12 13 14 15 15 15
3 4 4 3 2 4 4 2 0 2 4 4 2 3 2 1 1 3 4 4 3 3 3 4 5 7 7 4 2 10 13 17 11 5 7 9 10 11 12 11 13 15 14 14 17 18 18 15 14 15 17 18 18 18
5 4 5 5 2 5 5 5 7 7 3 3 5 0 2 3 0 7 4 3 3 3 3 6 7 5 6 8 3 2 14 17 15 6 10 11 11 9 4 2 4 16 10 8 11 14 16 14 15 16 18 20 18 18
5 5 2 1 3 4 3 2 2 3 4 5 3 3 3 3 6 5 3 3 3 5 5 11 15 10 8 10 23 16 10 12 14 9 9 9 12 15 16 14 11 22 17 16 15 16 17 17 17 19 20 20 22 22
2 3 7 4 1 0 5 3 5 7 4 3 5 5 7 8 5 3 4 3 8 11 11 9 11 19 21 18 17 20 16 15 15 16 18 21 23 26 29 31 29 29 30 28 27 25 25 24 23 21 20 22 23 21
2 2 3 3 1 2 5 5 5 3 3 5 5 4 4 3 3 3 3 6 9 10 9 9 8 11 15 18 20 21 19 16 9 7 12 8 3 19 28 26 21 17 14 13 14 17 19 21 22 23 24 22 21 18
2 2 3 2 5 5 3 4 2 2 1 3 2 2 3 3 9 14 17 22 19 15 19 17 18 16 12 13 14 21 24 21 19 17 10 10 9 16 14 14 12 11 11 15 18 19 16 15 17 18 18 17 16 15
2 2 2 2 3 2 1 1 2 1 2 1 1 3 4 4 10 16 21 18 17 18 17 16 17 16 15 16 14 7 9 14 14 17 20 24 25 24 25 25 24 21 20 17 16 17 18 15 16 19 21 20 18 14
1 2 3 1 2 2 1 3 2 1 3 2 3 1 3 3 3 3 4 10 6 8 5 6 8 8 8 11 14 15 18 21 23 24 26 27 27 25 24 23 22 22 22 21 19 18 18 17 16 17 19 19 18 15
2 1 1 1 2 2 1 2 4 5 2 2 3 2 2 2 6 4 3 7 8 9 11 13 13 12 11 11 12 11 11 13 14 14 14 14 16 17 18 19 18 18 18 20 20 17 17 17 17 16 16 16 15 13
Wind_Direction
180 182 184 177 174 172 171 167 165 156 139 104 72 50 56 35 37 55 73 33 47 79 284 241 322 309 339 20 314 359 315 120 331 187 165 188 182 227 158 197 179 165 164 186 188 216 274 212 52 178 227 289 290 335
179 180 180 175 173 173 167 169 162 157 149 129 84 75 57 34 40 41 51 0 345 180 262 303 290 282 247 233 111 327 35 313 20 284 312 126 242 113 171 244 48 215 180 184 182 211 230 235 231 264 220 240 290 300
180 178 177 174 173 172 166 169 165 162 158 146 115 102 75 52 46 37 9 2 356 37 309 342 331 351 9 237 214 166 287 59 65 359 324 310 257 129 194 239 228 247 171 201 125 253 242 257 260 240 226 246 263 215
178 178 174 171 173 171 171 170 166 162 161 151 135 112 82 45 26 1 35 57 73 96 317 283 321 319 350 282 216 219 153 85 138 258 7 317 294 31 259 265 235 217 133 195 254 285 289 272 241 242 226 201 169 123
178 174 171 173 171 170 173 170 168 166 162 156 149 111 94 36 14 69 75 73 79 91 282 295 319 343 344 338 228 203 202 101 100 274 201 232 279 318 246 214 228 201 214 178 230 250 223 254 287 218 216 205 188 158
172 172 173 172 173 171 172 170 170 168 162 167 161 134 101 17 14 138 57 67 45 30 93 326 303 289 333 33 102 144 148 104 97 177 229 275 260 293 294 263 250 225 213 212 262 246 215 278 295 284 219 183 166 152
169 171 171 174 171 170 169 167 168 168 166 169 161 127 115 349 33 83 132 51 359 23 70 327 337 311 3 60 26 116 120 173 157 235 245 265 285 265 259 258 249 279 289 325 314 289 252 206 270 57 126 114 109 90
169 169 173 172 167 169 167 164 167 169 166 162 157 135 153 127 112 89 68 74 59 96 78 358 286 354 36 282 242 161 149 198 201 241 264 222 279 199 258 253 291 282 265 301 286 186 267 18 114 94 83 110 101 95
169 172 171 168 169 166 165 166 166 168 165 155 135 127 112 94 83 109 73 89 58 78 95 30 346 290 258 246 176 219 174 221 168 224 243 155 206 227 237 275 287 333 285 257 202 186 148 178 148 156 110 76 108 103
170 169 168 168 166 165 166 165 163 166 161 147 139 128 80 106 97 137 124 129 91 97 86 254 144 279 294 263 192 215 199 229 224 219 144 225 258 259 246 248 286 318 314 274 122 260 229 219 194 170 86 97 87 10
167 168 168 167 163 165 162 162 164 161 153 159 116 121 137 135 155 104 109 73 166 60 175 242 202 283 191 270 292 208 250 225 248 180 210 218 253 277 343 319 327 338 9 9 10 77 67 58 146 152 116 73 52 24
167 167 164 164 162 163 161 166 169 165 147 143 124 111 127 147 44 97 322 227 160 211 184 240 331 237 268 236 256 201 254 240 250 153 238 245 299 336 328 323 346 5 13 37 31 53 62 83 81 83 79 55 28 10
162 163 164 164 161 163 163 168 169 156 133 118 71 61 74 319 87 118 189 296 195 159 59 13 316 287 274 261 263 260 237 236 222 223 244 233 325 333 311 304 1 18 25 55 44 49 54 64 63 70 66 34 17 11
160 161 162 159 160 159 157 167 160 150 110 90 120 54 140 269 227 185 179 163 136 144 214 269 252 268 291 259 268 250 248 271 246 242 239 338 324 313 312 303 10 22 44 78 81 94 84 75 60 54 50 24 11 2
156 156 153 157 159 154 162 162 162 142 110 118 97 221 203 220 287 225 214 117 173 153 188 299 277 251 261 276 245 286 246 244 224 241 19 297 316 306 300 293 180 163 166 152 138 113 67 6 35 15 13 5 355 349
148 144 155 162 158 156 157 159 151 128 72 98 72 90 275 50 298 271 211 219 211 178 140 172 242 268 262 265 253 232 256 234 285 354 319 308 322 320 302 284 237 181 179 188 206 23 91 9 2 328 330 332 345 347
142 125 163 159 161 160 156 133 146 76 133 97 262 230 146 154 207 208 174 188 145 105 167 142 220 227 329 258 254 222 233 282 294 267 253 292 287 295 293 265 226 197 195 207 214 249 228 338 329 319 309 307 319 308
135 148 159 161 157 138 115 113 103 122 208 196 204 208 203 228 205 210 191 145 126 170 113 197 201 227 221 219 246 245 233 247 246 242 249 283 284 293 266 250 239 221 209 208 216 245 252 270 278 279 287 295 305 294
148 155 166 167 154 117 120 123 128 209 209 208 261 161 194 267 261 139 135 145 133 149 107 158 233 221 228 218 222 244 220 212 248 271 262 280 291 283 275 259 251 242 235 229 224 235 255 276 270 280 284 280 282 293
141 157 166 161 162 102 100 92 137 128 173 226 57 166 176 188 264 159 116 136 133 115 222 225 222 217 205 216 196 199 193 194 217 293 289 279 308 321 293 269 255 262 253 253 249 252 263 276 270 266 263 257 257 271
124 148 155 149 95 92 103 140 133 184 150 131 310 171 244 9 32 133 149 137 146 218 236 229 234 237 216 220 212 208 225 200 219 207 257 296 295 298 298 298 287 266 246 246 241 253 249 253 270 273 263 249 252 261
118 157 105 128 86 28 83 82 114 111 92 185 75 54 113 179 207 207 140 187 227 227 211 209 228 222 212 235 240 236 245 248 248 259 267 273 274 304 288 293 287 264 261 254 251 249 259 274 274 268 250 250 243 250
132 113 98 128 127 144 114 117 94 107 137 205 52 52 269 235 229 325 230 238 253 240 226 228 219 217 224 235 230 239 239 235 236 246 256 261 273 280 281 285 280 261 271 276 277 270 269 280 270 250 246 237 235 242
113 143 190 201 128 106 110 71 74 87 67 147 131 267 257 220 144 124 252 245 245 238 212 215 181 168 312 274 244 239 239 216 223 241 246 251 276 292 288 294 295 283 273 281 280 274 273 272 272 242 235 230 232 238
168 209 168 161 93 106 113 109 136 159 213 193 160 279 256 107 126 243 233 262 245 242 234 186 200 212 220 236 279 232 208 196 191 210 237 222 247 281 292 299 300 298 300 270 265 265 266 265 256 241 234 232 235 240
209 193 188 170 182 157 162 150 193 196 165 184 225 218 53 100 186 251 227 233 241 227 207 201 200 201 231 219 218 200 211 210 210 215 257 247 241 236 240 254 301 302 304 276 273 268 267 261 251 245 243 240 238 240
211 184 157 49 126 120 98 70 93 135 169 201 183 155 128 211 241 250 276 235 227 235 260 247 208 203 223 215 222 220 189 199 208 231 260 259 268 272 268 255 252 279 291 283 277 272 270 270 262 256 255 258 252 245
141 164 168 183 96 28 137 147 164 196 207 179 126 186 194 200 238 237 220 264 279 284 287 290 250 241 241 247 247 229 236 241 246 258 265 270 272 277 280 276 275 282 277 274 272 269 265 267 267 265 262 261 267 265
143 170 121 120 97 217 205 179 203 214 165 158 175 217 234 225 238 235 282 294 296 284 280 275 271 257 252 250 247 248 259 269 272 275 272 272 301 276 289 286 283 276 276 275 272 267 266 266 266 264 264 265 271 274
224 153 97 135 171 217 237 178 219 265 225 194 235 318 300 274 264 282 278 277 263 259 269 278 283 283 275 279 284 286 287 287 270 241 264 270 263 282 287 285 281 274 271 280 285 284 277 264 252 243 242 249 250 250
123 77 84 171 221 244 234 318 292 298 25 321 329 188 248 302 307 283 276 283 288 284 287 289 292 290 286 281 273 273 287 291 281 276 275 276 277 276 275 276 279 281 281 277 275 276 273 269 252 243 234 233 241 245
117 143 147 166 290 285 60 51 23 0 333 2 275 336 320 356 284 280 325 345 347 26 17 335 306 304 293 276 273 272 272 275 277 278 280 283 284 284 281 278 276 275 275 273 270 268 263 256 248 240 238 234 233 234
86 69 59 29 344 331 24 39 20 332 340 305 282 228 230 209 245 281 334 18 13 356 347 339 328 316 308 302 300 300 300 301 301 298 294 293 294 297 298 291 282 271 267 266 263 258 252 248 245 243 237 229 223 218